Regional Weather Roundup
Issued by NWS Northern Indiana

Home | Current Version | Previous Version | Text Only | Print | Product List | Glossary Off
Versions: 1 2 3 4 5 6 7 8 9 10 11 12 13 14 15 16 17 18 19 20 21 22 23 24 25 26 27 28 29 30 31 32 33 34 35 36 37 38 39 40 41 42 43 44 45 46 47 48 49 50

000
ASUS43 KIWX 260800
RWRIWX

KIWX WEATHER ROUNDUP
NATIONAL WEATHER SERVICE NORTHERN INDIANA
400 AM EDT MON SEP 26 2016

NOTE: "FAIR" INDICATES FEW OR NO CLOUDS BELOW 12,000 FEET WITH NO
SIGNIFICANT WEATHER AND/OR OBSTRUCTIONS TO VISIBILITY.

* THESE STATIONS ARE NOT UNDER NWS QUALITY CONTROL. THEY ALSO MAY NOT
  REPORT WEATHER SUCH AS PRECIPITATION OR FOG.

INZ001>027-260900-
NORTHERN INDIANA

CITY           SKY/WX    TMP DP  RH WIND       PRES   REMARKS
SOUTH BEND     LGT RAIN  62  58  86 NW10      29.95S
GOSHEN         RAIN      66  58  75 W12       29.93S
ANGOLA*        CLOUDY    68  68 100 SW6       29.90F
FORT WAYNE     CLOUDY    69  66  90 SW5       29.92F
PERU/GRISSOM   CLOUDY    69  60  75 NW12      29.93S

$$
INZ028>050-260900-
CENTRAL INDIANA

CITY           SKY/WX    TMP DP  RH WIND       PRES   REMARKS
LAFAYETTE      CLOUDY    64  57  78 W13       29.99R
MUNCIE*        CLOUDY    70  67  90 SW5       29.94F FOG
INDIANAPOLIS   CLOUDY    70  68  93 NW9       29.95F

$$
MIZ043>046-050>051-056>058-064>065-071>073-077>080-260900-
SOUTHWEST LOWER MICHIGAN

CITY           SKY/WX    TMP DP  RH WIND       PRES   REMARKS
BATTLE CREEK   CLOUDY    67  62  84 W10       29.90S
BENTON HARBOR  CLOUDY    66  54  65 W17       29.93F
COLDWATER*     CLOUDY    68  64  88 W7        29.90F
HILLSDALE*     CLOUDY    64  61  88 S5        29.89F
HOLLAND        CLOUDY    65  58  78 W10       29.91R
GRAND RAPIDS   CLOUDY    65  61  87 W12       29.88F
KALAMAZOO      LGT RAIN  67  59  75 W15       29.92R
STURGIS*       CLOUDY    68  58  71 NW8       29.91S
THREE RIVERS*  CLOUDY    68  59  73 NW15G21   29.92R

$$
OHZ001>008-015>018-024>025-260900-
NORTHWEST OHIO

CITY           SKY/WX    TMP DP  RH WIND       PRES   REMARKS
DEFIANCE       CLOUDY    67  63  87 NW7       29.91F
FINDLAY        CLOUDY    70  51  51 SE8       29.91F
TOLEDO EXPRESS CLOUDY    63  60  90 S7        29.89F
TOLEDO METCALF CLOUDY    66  58  75 W5        29.91F
LIMA           PTCLDY    70  60  70 S8        29.92F

$$
AND FOR LAKE MICHIGAN COASTAL AND OPEN LAKE BUOY OBSERVATIONS

STATION/POSITION TEMP    WIND        PRES    VSBY  WAVE
                 AIR SEA DIR/SP/G                  HT/PER
                 (F)     (DEG/KT/KT) (MB)    (MI)  (FT/S)
CALUMET HARBOR    61     250/  5/ 13 1014.5R
MICHIGAN CITY     65     250/ 21/ 23   N/A
BURNS HARBOR      65     290/ 21/ 25 1014.9R
SAINT JOSEPH      66     280/ 12/ 16 1014.6
SOUTH LAKE BUOY   65 72  260/ 19/ 23 1012.3          4/ 5
4 MI NW BRIDGMAN  67 66  290/ 19/ 25 1013.5S         6/ 5
MICHIGAN CITY     66 66  280/ 19/ 27   N/A           5/ 5

$$
&&




USA.gov is the U.S. government's official web portal to all federal, state and local government web resources and services.